TimePDT,TemperatureF,Dew PointF,Humidity,Sea Level PressureIn,VisibilityMPH,Wind Direction,Wind SpeedMPH,Gust SpeedMPH,PrecipitationIn,Events,Conditions,WindDirDegrees,DateUTC
12:15 AM,57.2,48.2,72,30.24,10.0,Calm,Calm,-,N/A,,Clear,0,2012-10-13 07:15:00
12:30 AM,55.4,48.2,77,30.24,10.0,Calm,Calm,-,N/A,,Clear,0,2012-10-13 07:30:00
12:55 AM,55.4,48.2,77,30.25,10.0,Calm,Calm,-,N/A,,Clear,0,2012-10-13 07:55:00
1:10 AM,55.4,48.2,77,30.25,10.0,Calm,Calm,-,N/A,,Clear,0,2012-10-13 08:10:00
1:35 AM,55.4,46.4,72,30.25,10.0,WSW,3.5,-,N/A,,Partly Cloudy,240,2012-10-13 08:35:00
1:55 AM,53.6,46.4,77,30.25,10.0,Calm,Calm,-,N/A,,Mostly Cloudy,0,2012-10-13 08:55:00
2:10 AM,53.6,46.4,77,30.26,10.0,Calm,Calm,-,N/A,,Scattered Clouds,0,2012-10-13 09:10:00
2:35 AM,53.6,48.2,82,30.26,10.0,Calm,Calm,-,N/A,,Scattered Clouds,0,2012-10-13 09:35:00
2:55 AM,53.6,46.4,77,30.27,10.0,NW,3.5,-,N/A,,Mostly Cloudy,310,2012-10-13 09:55:00
3:10 AM,53.6,46.4,77,30.27,10.0,Calm,Calm,-,N/A,,Overcast,0,2012-10-13 10:10:00
3:35 AM,53.6,48.2,82,30.26,10.0,Calm,Calm,-,N/A,,Overcast,0,2012-10-13 10:35:00
3:50 AM,53.6,46.4,77,30.26,10.0,Calm,Calm,-,N/A,,Mostly Cloudy,0,2012-10-13 10:50:00
4:10 AM,53.6,46.4,77,30.26,10.0,Calm,Calm,-,N/A,,Scattered Clouds,0,2012-10-13 11:10:00
4:35 AM,53.6,46.4,77,30.27,10.0,Calm,Calm,-,N/A,,Mostly Cloudy,0,2012-10-13 11:35:00
4:50 AM,53.6,46.4,77,30.28,10.0,Calm,Calm,-,N/A,,Mostly Cloudy,0,2012-10-13 11:50:00
5:10 AM,53.6,46.4,77,30.28,10.0,Calm,Calm,-,N/A,,Scattered Clouds,0,2012-10-13 12:10:00
5:35 AM,51.8,48.2,88,30.28,10.0,SSW,4.6,-,N/A,,Clear,200,2012-10-13 12:35:00
5:50 AM,51.8,48.2,88,30.27,10.0,SW,3.5,-,N/A,,Clear,230,2012-10-13 12:50:00
6:15 AM,51.8,48.2,88,30.27,10.0,Calm,Calm,-,N/A,,Clear,0,2012-10-13 13:15:00
6:50 AM,53.6,48.2,82,30.28,10.0,Calm,Calm,-,N/A,,Clear,0,2012-10-13 13:50:00
6:53 AM,53.6,48.2,82,30.28,10.0,Calm,Calm,-,N/A,,Scattered Clouds,0,2012-10-13 13:53:00
7:48 AM,53.6,48.2,82,30.29,10.0,Calm,Calm,-,N/A,,Scattered Clouds,0,2012-10-13 14:48:00
8:49 AM,59.0,53.6,82,30.31,10.0,NNE,3.5,-,N/A,,Partly Cloudy,30,2012-10-13 15:49:00
9:50 AM,60.8,51.8,72,30.32,10.0,Calm,Calm,-,N/A,,Partly Cloudy,0,2012-10-13 16:50:00
10:49 AM,60.8,51.8,72,30.31,10.0,NNE,5.8,-,N/A,,Partly Cloudy,30,2012-10-13 17:49:00
12:48 PM,66.2,50.0,56,30.28,10.0,Variable,3.5,-,N/A,,Partly Cloudy,0,2012-10-13 19:48:00
1:47 PM,68.0,50.0,52,30.25,10.0,Calm,Calm,-,N/A,,Partly Cloudy,0,2012-10-13 20:47:00
2:47 PM,71.6,50.0,46,30.23,10.0,NNW,5.8,-,N/A,,Partly Cloudy,340,2012-10-13 21:47:00
3:48 PM,73.4,50.0,44,30.20,10.0,NNW,8.1,-,N/A,,Partly Cloudy,340,2012-10-13 22:48:00
4:55 PM,73.4,51.8,47,30.19,10.0,NW,11.5,-,N/A,,Partly Cloudy,320,2012-10-13 23:55:00
5:48 PM,68.0,57.2,68,30.20,10.0,NW,10.4,-,N/A,,Partly Cloudy,310,2012-10-14 00:48:00
6:47 PM,66.2,55.4,68,30.19,10.0,WNW,8.1,-,N/A,,Partly Cloudy,290,2012-10-14 01:47:00
7:49 PM,64.4,55.4,73,30.20,10.0,North,-9999.0,-,N/A,,Clear,0,2012-10-14 02:49:00
8:47 PM,62.6,55.4,77,30.20,10.0,West,5.8,-,N/A,,Clear,260,2012-10-14 03:47:00
9:15 PM,62.6,55.4,77,30.20,10.0,WNW,3.5,-,N/A,,Clear,300,2012-10-14 04:15:00
9:35 PM,62.6,55.4,77,30.21,10.0,NW,3.5,-,N/A,,Clear,310,2012-10-14 04:35:00
10:15 PM,62.6,55.4,77,30.21,10.0,Calm,Calm,-,N/A,,Clear,0,2012-10-14 05:15:00
10:30 PM,59.0,55.4,88,30.21,10.0,Calm,Calm,-,N/A,,Clear,0,2012-10-14 05:30:00
10:50 PM,59.0,55.4,88,30.21,10.0,Calm,Calm,-,N/A,,Clear,0,2012-10-14 05:50:00
11:15 PM,59.0,55.4,88,30.21,10.0,Calm,Calm,-,N/A,,Clear,0,2012-10-14 06:15:00
11:30 PM,59.0,55.4,88,30.21,10.0,Calm,Calm,-,N/A,,Clear,0,2012-10-14 06:30:00
11:50 PM,59.0,55.4,88,30.21,10.0,Calm,Calm,-,N/A,,Clear,0,2012-10-14 06:50:00